| time (UTC) | temp F | wind direction | speed knots | gust knots | rain 1hr in | rain 24hr in | rain mn in | humidity % | barometer mb |
| 20260507201538 | 62 | 209 | 4.3 | 13.9 | 0.00 | 0.18 | 0.01 | 36 | 1005.2 |
| 20260507200044 | 61 | 312 | 1.7 | 7.8 | 0.00 | 0.18 | 0.01 | 33 | 1005.2 |
| 20260507194536 | 60 | 328 | 4.3 | 9.6 | 0.00 | 0.20 | 0.01 | 37 | 1005.4 |
| 20260507193035 | 60 | 326 | 5.2 | 10.4 | 0.00 | 0.20 | 0.01 | 36 | 1005.4 |
| 20260507191534 | 61 | 269 | 3.5 | 9.6 | 0.00 | 0.20 | 0.01 | 38 | 1005.8 |
| 20260507190034 | 60 | 295 | 4.3 | 13.9 | 0.00 | 0.20 | 0.01 | 30 | 1005.8 |
| 20260507184534 | 60 | 274 | 5.2 | 13.9 | 0.00 | 0.23 | 0.01 | 36 | 1006.0 |
| 20260507183038 | 60 | 309 | 5.2 | 12.2 | 0.00 | 0.23 | 0.01 | 35 | 1006.0 |
| 20260507181534 | 61 | 297 | 5.2 | 12.2 | 0.00 | 0.23 | 0.01 | 35 | 1006.1 |
| 20260507180040 | 60 | 338 | 6.1 | 9.6 | 0.00 | 0.23 | 0.01 | 35 | 1006.2 |
| 20260507174536 | 60 | 32 | 5.2 | 10.4 | 0.00 | 0.23 | 0.01 | 40 | 1006.1 |
| 20260507173039 | 60 | 300 | 4.3 | 9.6 | 0.00 | 0.23 | 0.01 | 39 | 1006.0 |
| 20260507171542 | 60 | 196 | 3.5 | 13.0 | 0.00 | 0.23 | 0.01 | 35 | 1006.2 |
| 20260507170033 | 59 | 290 | 4.3 | 10.4 | 0.00 | 0.23 | 0.01 | 41 | 1006.4 |
| 20260507164546 | 59 | 23 | 2.6 | 11.3 | 0.00 | 0.23 | 0.01 | 41 | 1006.7 |
| 20260507163032 | 59 | 309 | 1.7 | 14.8 | 0.00 | 0.23 | 0.01 | 42 | 1006.7 |
| 20260507161540 | 59 | 359 | 4.3 | 10.4 | 0.00 | 0.23 | 0.01 | 47 | 1006.8 |
| 20260507160038 | 58 | 233 | 5.2 | 13.0 | 0.00 | 0.23 | 0.01 | 47 | 1006.9 |
| 20260507154535 | 58 | 300 | 1.7 | 11.3 | 0.00 | 0.23 | 0.01 | 56 | 1006.9 |
| 20260507153030 | 56 | 255 | 2.6 | 8.7 | 0.00 | 0.23 | 0.01 | 61 | 1007.1 |
| 20260507151539 | 56 | 275 | 0.9 | 8.7 | 0.00 | 0.23 | 0.01 | 65 | 1007.2 |
| 20260507150034 | 56 | 299 | 0.9 | 6.1 | 0.00 | 0.23 | 0.01 | 62 | 1007.3 |
| 20260507144534 | 55 | 329 | 0.9 | 5.2 | 0.00 | 0.23 | 0.01 | 66 | 1007.6 |
| 20260507143040 | 57 | 248 | 1.7 | 6.1 | 0.00 | 0.23 | 0.01 | 61 | 1007.4 |
| 20260507141537 | 56 | 343 | 0.9 | 6.1 | 0.00 | 0.23 | 0.01 | 63 | 1007.4 |
| 20260507140035 | 55 | 217 | 2.6 | 8.7 | 0.00 | 0.23 | 0.01 | 64 | 1007.3 |
| 20260507134545 | 55 | 312 | 3.5 | 8.7 | 0.00 | 0.23 | 0.01 | 57 | 1007.3 |
| 20260507133034 | 55 | 325 | 1.7 | 7.8 | 0.00 | 0.23 | 0.01 | 62 | 1007.6 |
| 20260507131538 | 54 | 293 | 2.6 | 6.1 | 0.00 | 0.23 | 0.01 | 63 | 1007.8 |
| 20260507130039 | 53 | 290 | 1.7 | 7.0 | 0.00 | 0.23 | 0.01 | 71 | 1007.9 |
| 20260507124537 | 52 | 241 | 3.5 | 6.1 | 0.00 | 0.23 | 0.01 | 73 | 1007.9 |
| 20260507123037 | 52 | 332 | 3.5 | 7.8 | 0.00 | 0.23 | 0.01 | 70 | 1007.9 |
| 20260507121533 | 51 | 146 | 0.9 | 6.1 | 0.00 | 0.23 | 0.01 | 80 | 1007.9 |
| 20260507120032 | 48 | 0 | 1.7 | 7.8 | 0.00 | 0.23 | 0.01 | 84 | 1007.9 |
| 20260507114535 | 47 | 312 | 0.9 | 6.1 | 0.00 | 0.23 | 0.01 | 85 | 1007.9 |
| 20260507113033 | 48 | 276 | 0.9 | 4.3 | 0.00 | 0.23 | 0.01 | 86 | 1007.8 |
| 20260507111532 | 47 | 330 | 0.0 | 3.5 | 0.00 | 0.23 | 0.01 | 86 | 1007.8 |
| 20260507110046 | 47 | 274 | 0.0 | 3.5 | 0.00 | 0.23 | 0.01 | 86 | 1007.8 |
| 20260507104530 | 47 | 304 | 0.9 | 4.3 | 0.00 | 0.23 | 0.01 | 86 | 1007.4 |
| 20260507103033 | 47 | 316 | 0.9 | 2.6 | 0.00 | 0.23 | 0.01 | 87 | 1007.3 |
| 20260507101540 | 47 | 0 | 0.0 | 4.3 | 0.00 | 0.23 | 0.01 | 87 | 1007.1 |
| 20260507100037 | 47 | 345 | 0.0 | 5.2 | 0.00 | 0.23 | 0.01 | 87 | 1006.9 |
| 20260507094533 | 47 | 342 | 0.0 | 4.3 | 0.00 | 0.23 | 0.01 | 86 | 1007.5 |
| 20260507093030 | 46 | 0 | 0.0 | 1.7 | 0.00 | 0.23 | 0.01 | 85 | 1007.4 |
| 20260507091538 | 46 | 262 | 0.0 | 4.3 | 0.00 | 0.23 | 0.01 | 85 | 1007.1 |
| 20260507090039 | 46 | 277 | 0.0 | 5.2 | 0.00 | 0.23 | 0.01 | 86 | 1007.3 |
| 20260507084538 | 46 | 290 | 0.0 | 1.7 | 0.01 | 0.23 | 0.01 | 86 | 1007.6 |
| 20260507083038 | 47 | 298 | 1.7 | 3.5 | 0.01 | 0.23 | 0.01 | 87 | 1006.9 |
| 20260507081538 | 47 | 335 | 1.7 | 5.2 | 0.01 | 0.23 | 0.01 | 87 | 1007.0 |
| 20260507080036 | 48 | 0 | 1.7 | 5.2 | 0.01 | 0.23 | 0.01 | 86 | 1006.7 |
| 20260507074543 | 49 | 319 | 1.7 | 6.1 | 0.00 | 0.22 | 0.00 | 86 | 1007.1 |
| 20260507073032 | 49 | 240 | 1.7 | 6.1 | 0.00 | 0.22 | 0.00 | 86 | 1006.7 |
| 20260507071533 | 49 | 0 | 0.9 | 7.0 | 0.00 | 0.22 | 0.00 | 86 | 1006.5 |
| 20260507070036 | 49 | 0 | 0.9 | 3.5 | 0.00 | 0.22 | 0.00 | 86 | 1006.8 |
| 20260507064537 | 49 | 0 | 0.0 | 2.6 | 0.00 | 0.22 | 0.00 | 86 | 1006.2 |
| 20260507063037 | 50 | 223 | 0.0 | 3.5 | 0.00 | 0.22 | 0.00 | 86 | 1006.5 |
| 20260507061534 | 50 | 303 | 0.9 | 5.2 | 0.00 | 0.22 | 0.00 | 86 | 1006.2 |
| 20260507060039 | 50 | 0 | 0.9 | 5.2 | 0.00 | 0.22 | 0.00 | 86 | 1006.3 |
| 20260507054532 | 50 | 0 | 0.9 | 7.0 | 0.00 | 0.22 | 0.00 | 85 | 1006.6 |
| 20260507053032 | 50 | 321 | 0.9 | 7.0 | 0.00 | 0.22 | 0.00 | 85 | 1006.9 |
| 20260507051539 | 50 | 329 | 1.7 | 7.0 | 0.00 | 0.22 | 0.00 | 86 | 1006.7 |
| 20260507050041 | 51 | 0 | 0.9 | 8.7 | 0.00 | 0.22 | 0.00 | 86 | 1006.5 |
| 20260507044534 | 51 | 307 | 2.6 | 7.0 | 0.00 | 0.22 | 0.00 | 85 | 1006.6 |
| 20260507043032 | 51 | 343 | 0.9 | 3.5 | 0.00 | 0.22 | 0.00 | 83 | 1006.5 |
| 20260507041533 | 52 | 67 | 1.7 | 8.7 | 0.00 | 0.22 | 0.00 | 83 | 1006.8 |
| 20260507040034 | 53 | 309 | 2.6 | 8.7 | 0.00 | 0.22 | 0.00 | 83 | 1006.7 |
| 20260507034552 | 54 | 0 | 0.9 | 6.1 | 0.00 | 0.22 | 0.22 | 81 | 1006.3 |
| 20260507033041 | 55 | 0 | 0.0 | 7.8 | 0.01 | 0.22 | 0.22 | 81 | 1006.0 |
| 20260507031535 | 56 | 0 | 0.9 | 7.8 | 0.01 | 0.22 | 0.22 | 78 | 1005.6 |
| 20260507030036 | 57 | 278 | 2.6 | 8.7 | 0.01 | 0.22 | 0.22 | 74 | 1005.8 |
| 20260507024548 | 57 | 303 | 1.7 | 7.0 | 0.01 | 0.22 | 0.22 | 74 | 1005.5 |
| 20260507023037 | 57 | 231 | 1.7 | 4.3 | 0.00 | 0.21 | 0.21 | 74 | 1005.4 |
| 20260507021545 | 57 | 267 | 1.7 | 6.1 | 0.00 | 0.21 | 0.21 | 74 | 1005.1 |
| 20260507020035 | 57 | 0 | 1.7 | 7.8 | 0.00 | 0.21 | 0.21 | 74 | 1005.2 |
| 20260507014540 | 57 | 202 | 0.9 | 7.8 | 0.00 | 0.21 | 0.21 | 74 | 1005.3 |
| 20260507013034 | 57 | 177 | 2.6 | 6.1 | 0.00 | 0.21 | 0.21 | 74 | 1005.3 |
| 20260507011540 | 57 | 0 | 1.7 | 9.6 | 0.00 | 0.21 | 0.21 | 74 | 1005.4 |
| 20260507010032 | 57 | 168 | 0.9 | 6.1 | 0.00 | 0.21 | 0.21 | 74 | 1005.4 |
| 20260507004531 | 57 | 243 | 4.3 | 9.6 | 0.00 | 0.21 | 0.21 | 74 | 1005.5 |
| 20260507003034 | 57 | 0 | 2.6 | 11.3 | 0.00 | 0.21 | 0.21 | 75 | 1005.2 |
| 20260507001541 | 57 | 0 | 0.9 | 5.2 | 0.01 | 0.21 | 0.21 | 75 | 1005.2 |
| 20260507000033 | 57 | 238 | 1.7 | 8.7 | 0.04 | 0.21 | 0.21 | 75 | 1005.1 |
| 20260506234532 | 57 | 326 | 1.7 | 7.8 | 0.06 | 0.21 | 0.21 | 75 | 1005.0 |
| 20260506233033 | 57 | 197 | 1.7 | 7.8 | 0.07 | 0.21 | 0.21 | 75 | 1005.1 |
| 20260506231533 | 57 | 146 | 0.9 | 7.8 | 0.06 | 0.20 | 0.20 | 76 | 1005.1 |
| 20260506230042 | 57 | 198 | 2.6 | 8.7 | 0.04 | 0.17 | 0.17 | 76 | 1005.3 |
| 20260506224534 | 57 | 290 | 1.7 | 7.8 | 0.03 | 0.15 | 0.15 | 77 | 1005.3 |
| 20260506223032 | 57 | 177 | 1.7 | 7.0 | 0.03 | 0.14 | 0.14 | 77 | 1005.3 |
| 20260506221537 | 58 | 250 | 0.9 | 8.7 | 0.03 | 0.14 | 0.14 | 78 | 1005.4 |
| 20260506220040 | 58 | 147 | 1.7 | 7.8 | 0.03 | 0.13 | 0.13 | 78 | 1005.6 |
| 20260506214537 | 58 | 236 | 0.9 | 7.0 | 0.03 | 0.12 | 0.12 | 79 | 1005.5 |
| 20260506213036 | 58 | 185 | 1.7 | 11.3 | 0.04 | 0.11 | 0.11 | 79 | 1005.7 |
| 20260506211540 | 58 | 238 | 3.5 | 8.7 | 0.05 | 0.11 | 0.11 | 80 | 1005.9 |
| 20260506210032 | 59 | 156 | 4.3 | 13.9 | 0.05 | 0.10 | 0.10 | 81 | 1006.0 |
| 20260506204533 | 59 | 166 | 2.6 | 11.3 | 0.04 | 0.09 | 0.09 | 81 | 1006.2 |
| 20260506203032 | 60 | 280 | 1.7 | 8.7 | 0.02 | 0.07 | 0.07 | 82 | 1006.1 |